Location: ????????
(56.1167°N, 38.6333°E)
Time: 21:58:19
(UTC+00:00)

PSLV R/B - Pass Details

Date: 18 November 2025
Orbit: 561 x 590 km, 98.0° (Epoch: 06 December)

Event Time Altitude Azimuth Distance (km) Brightness Sun altitude
Rises 14:40:54 0° 134° (SE) 2,760 6.6 -12.0°
Reaches altitude 10° 14:43:12 10° 124° (SE) 1,863 5.6 -12.3°
Maximum altitude 14:46:45 31° 62° (ENE) 1,010 4.1 -12.7°
Drops below altitude 10° 14:50:19 10° 0° (N) 1,869 5.9 -13.2°
Sets 14:52:37 0° 350° (N) 2,769 6.9 -13.5°
